BREEZE-KM R/B, 44909

Orbit data source: Space-Track

BREEZE-KM R/B, 44909 is space debris in LEO originally from a launch on Thu, 26 Dec 2019 UTC via an ROKOT launch vehicle from the Plesetsk Missile And Space Complex (PKMTR). Debris objects in space refer to the collection of defunct objects orbiting the Earth. Examples of debris include non-operational satellites, rocket bodies, and fragments generated from explosions, collisions, or faulty payload assembly.

Loading next visibility...
Identifier
44909, 2019-096E
Orbit
LEO
Country
Flag of CISCIS
Related business
Manufacturer
SNIU/RESH
Mission
Operational Amateur Communications/Amateur Geodetic
Bus & Motor
YUBILYENIY, Unknown motor
Mass
~2,420 kg wet, ~50 kg dry
Launch date (UTC)
2019-12-26 (6 years ago)
Launch vehicle
ROKOT
Launch site
Plesetsk Missile And Space Complex (PKMTR)
Object type
Payload
Rocket body
Debris
Shape & HBR
Cyl + Hex Box + Sphere, 2.5 m
Radar Cross Section
16.640 m², Large (>1 m²)

Expand to show TLE details & history
Last TLE update: 8 hours ago

TLE from 8 hours ago
0 BREEZE-KM R/B
1 44909U 19096E   26126.41261568  .00000023  00000-0  52284-4 0  9991
2 44909  82.5249   7.4674 0216486 241.9477 115.9582 12.79748118297004
Epoch: 2026-05-06T09:54Z
TLE epoch observation values (Epoch: 2026-05-06T09:54:09.994Z)
Latitude
-0.00002°
Longitude
-5.34772°
Altitude
1,421.293 km
Speed
7.115 km/s
True Right ascension
00h 29m 52s
True Declination
0° 00' 00"
Sunlit
Object was in daylight at epoch
Visualization orbit readout
Latitude
Unknown
Longitude
Unknown
Altitude
Unknown
Speed
Unknown
Apparent Right ascension
Unknown
Apparent Declination
Unknown
Sunlit
N/A
Visualization observer readout
Local Sidereal Time
01:25:29
Azimuth
Unknown
Elevation
Unknown
Doppler factor
Unknown
Orbital elements
Apogee altitude
1,506.861 km
Perigee altitude
1,172.697 km
Semi-major axis
7,717.916 km
Eccentricity
0.02165
Inclination
82.5249°
RAAN
7.4674°
Arg. of periapsis
241.9477°
True anomaly
118.16201°
Mean anomaly
115.9582°
Eccentric anomaly
117.06276°
Mean motion
3.20105 °/min
Orbital period
112.46 mins
BSTAR
0.000052284
Loading maneuver chart data...
Computing Atmospheric mass density...
Loading historical data...
Loading historical data...
Loading historical data...
Loading historical data...
Loading historical data...
Loading historical data...
Loading historical data...

Documentation

Showing up to 5 results
|